CASSIOPE

Last updated on Sun Jun 21 2026 00:03:39 GMT+0000 (Coordinated Universal Time)

1 39265U 13055A 26171.44198088 .00046037 -45328-6 50105-3 0 9991 2 39265 80.9141 62.7685 0291626 51.5344 311.1666 15.25473611668168
UTC large
Height (km)
Speed (km/s)
/
Latitude / Longitude
Inclination (degrees)
Orbital Period (minutes)
Azimuth
Elevation
Range (km)
Doppler Factor

Next 0 passes for location: London (51.5072 / 0.1276)

No passes found over London.
CASSIOPE